NW Arkansas Airport, AR

2:26 AM CDT on May 28, 2017 (GMT -0500)
Northwest Arkansas Regional

Weather History for KXNA - October, 2014

Change the Weather History Date:

Friday, October 10, 2014

  Actual Average (KVBT) Record (KVBT)
Temperature  
Mean Temperature 62 °F -  
Max Temperature 68 °F 71 °F 91 °F (1963)
Min Temperature 55 °F 45 °F 25 °F (1979)
Degree Days  
Heating Degree Days 4    
Growing Degree Days 12 (Base 50)    
Moisture  
Dew Point 62 °F    
Average Humidity 98    
Maximum Humidity 100    
Minimum Humidity 90    
Precipitation  
Precipitation 3.15 in - - ()
Sea Level Pressure  
Sea Level Pressure 29.94 in    
Wind  
Wind Speed 9 mph (ENE)    
Max Wind Speed 26 mph    
Max Gust Speed 45 mph    
Visibility 7 miles    
Events Fog , Rain , Thunderstorm    
Averages and records for this station are not official NWS values.
T = Trace of Precipitation, MM = Missing Value Source: NWS Daily Summary

Daily Weather History Graph

Daily Weather History Graph

Search for Another Location

Airport or City:

Trip Planner

Search our weather history database for the weather conditions in past years. The results will help you decide how hot, cold, wet, or windy it might be!

Date:

Astronomy

Oct. 10, 2014 Rise Set
Actual Time 7:19 AM CDT 6:47 PM CDT
Civil Twilight 6:54 AM CDT 7:13 PM CDT
Nautical Twilight 6:24 AM CDT 7:43 PM CDT
Astronomical Twilight 5:54 AM CDT 8:13 PM CDT
Moon 8:33 PM CDT (10/10) 9:38 AM CDT (10/10)
Length of Visible Light 12h 19m
Length of Day
11h 27m
Waning Gibbous, 93% of the Moon is Illuminated
Oct 10
Waning Gibbous
Oct 15
Last Quarter
Oct 23
New
Oct 30
First Quarter
Nov 6
Full

Hourly Weather History & Observations

Time (CDT) Temp. Dew Point Humidity Pressure Visibility Wind Dir Wind Speed Gust Speed Precip Events Conditions
12:26 AM 66.9 °F 66.0 °F 97% 29.93 in 10.0 mi ESE 4.6 mph - N/A   Overcast
12:53 AM 68.0 °F 66.0 °F 93% 29.88 in 10.0 mi SE 9.2 mph - 0.00 in   Overcast
1:08 AM 66.9 °F 66.0 °F 97% 29.91 in 6.0 mi SSE 6.9 mph - 0.01 in Rain Light Rain
1:35 AM 66.9 °F 66.0 °F 97% 29.91 in 10.0 mi SE 8.1 mph - 0.02 in Thunderstorm Overcast
1:50 AM 68.0 °F 66.2 °F 94% 29.90 in 10.0 mi SSE 11.5 mph - 0.02 in   Overcast
1:53 AM 68.0 °F 66.0 °F 93% 29.86 in 10.0 mi SSE 10.4 mph - 0.02 in   Overcast
2:53 AM 68.0 °F 64.9 °F 90% 29.86 in 10.0 mi South 5.8 mph - N/A   Overcast
3:51 AM 68.0 °F 66.2 °F 94% 29.90 in 6.0 mi South 5.8 mph - 0.05 in Rain , Thunderstorm Light Rain
3:53 AM 68.0 °F 66.0 °F 93% 29.85 in 7.0 mi South 5.8 mph - 0.05 in Rain , Thunderstorm Rain
4:10 AM 68.0 °F 66.0 °F 93% 29.92 in 5.0 mi WNW 20.7 mph 31.1 mph 0.08 in Rain , Thunderstorm Thunderstorms and Rain
4:13 AM 66.9 °F 64.9 °F 93% 29.89 in 1.5 mi North 24.2 mph 33.4 mph 0.27 in Rain , Thunderstorm Heavy Thunderstorms and Rain
4:22 AM 64.0 °F 64.0 °F 100% 29.93 in 0.5 mi NNW 24.2 mph 44.9 mph 0.65 in Fog , Rain , Thunderstorm Heavy Thunderstorms and Rain
4:31 AM 63.0 °F - N/A% 29.93 in 1.0 mi North 26.5 mph 32.2 mph 0.87 in Rain , Thunderstorm Heavy Rain
4:38 AM 63.0 °F - N/A% 29.93 in 2.0 mi NNE 16.1 mph 32.2 mph 0.96 in Rain , Thunderstorm Heavy Thunderstorms and Rain
4:49 AM 62.6 °F - N/A% 29.93 in 4.0 mi NE 9.2 mph - 1.03 in Rain , Thunderstorm Heavy Thunderstorms and Rain
4:51 AM 62.6 °F - N/A% 29.93 in 3.0 mi NE 9.2 mph - 1.06 in Rain , Thunderstorm Heavy Rain
4:53 AM 63.0 °F - N/A% 29.90 in 3.0 mi NE 10.4 mph - 1.07 in Rain , Thunderstorm Heavy Rain
5:03 AM 63.0 °F - N/A% 29.94 in 3.0 mi NE 11.5 mph - 0.08 in Rain , Thunderstorm Heavy Thunderstorms and Rain
5:13 AM 63.0 °F - N/A% 29.93 in 4.0 mi NE 6.9 mph - 0.13 in Rain Heavy Rain
5:21 AM 63.0 °F - N/A% 29.93 in 4.0 mi East 5.8 mph - 0.18 in Rain , Thunderstorm Heavy Rain
5:36 AM 63.0 °F - N/A% 29.91 in 9.0 mi East 5.8 mph - 0.20 in Rain Light Rain
5:53 AM 63.0 °F - N/A% 29.88 in 4.0 mi ESE 9.2 mph - 0.29 in Rain Rain
6:04 AM 63.0 °F - N/A% 29.92 in 9.0 mi SSE 6.9 mph - 0.01 in Rain , Thunderstorm Light Thunderstorms and Rain
6:25 AM 63.0 °F - N/A% 29.91 in 3.0 mi ESE 9.2 mph - 0.15 in Rain Heavy Rain
6:36 AM 63.0 °F - N/A% 29.92 in 4.0 mi East 8.1 mph - 0.20 in Rain , Thunderstorm Heavy Rain
6:53 AM 63.0 °F - N/A% 29.91 in 4.0 mi North 8.1 mph - 0.27 in Rain , Thunderstorm Heavy Thunderstorms and Rain
7:00 AM 63.0 °F 63.0 °F 100% 29.93 in 3.0 mi NE 8.1 mph - 0.09 in Rain , Thunderstorm Heavy Thunderstorms and Rain
7:08 AM 63.0 °F 63.0 °F 100% 29.94 in 2.0 mi ENE 6.9 mph - 0.18 in Rain , Thunderstorm Heavy Thunderstorms and Rain
7:19 AM 62.1 °F 62.1 °F 100% 29.93 in 1.8 mi East 11.5 mph - 0.41 in Rain , Thunderstorm Heavy Thunderstorms and Rain
7:30 AM 62.1 °F 62.1 °F 100% 29.96 in 2.5 mi NNE 6.9 mph - 0.54 in Rain , Thunderstorm Heavy Rain
7:44 AM 62.1 °F 62.1 °F 100% 29.98 in 1.5 mi NNE 8.1 mph - 0.82 in Rain , Thunderstorm Heavy Rain
7:53 AM 62.1 °F 62.1 °F 100% 29.95 in 1.2 mi NNE 8.1 mph - 1.01 in Rain , Thunderstorm Heavy Rain
7:58 AM 62.1 °F 62.1 °F 100% 29.97 in 2.0 mi NE 6.9 mph - 0.03 in Rain , Thunderstorm Heavy Rain
8:07 AM 62.1 °F 62.1 °F 100% 29.98 in 4.0 mi NE 6.9 mph - 0.07 in Rain , Thunderstorm Heavy Rain
8:38 AM 62.1 °F 62.1 °F 100% 30.03 in 6.0 mi NNE 5.8 mph - 0.15 in Rain Rain
8:53 AM 62.1 °F 62.1 °F 100% 29.98 in 5.0 mi ENE 10.4 mph - 0.21 in Rain , Thunderstorm Thunderstorms and Rain
9:13 AM 62.1 °F 62.1 °F 100% 29.97 in 7.0 mi East 12.7 mph - 0.06 in Rain Rain
9:53 AM 62.1 °F 62.1 °F 100% 29.91 in 10.0 mi ESE 10.4 mph - 0.11 in   Mostly Cloudy
10:53 AM 63.0 °F 62.1 °F 97% 29.92 in 10.0 mi SSE 10.4 mph - N/A   Mostly Cloudy
11:01 AM 63.0 °F 62.1 °F 97% 29.96 in 10.0 mi South 12.7 mph - N/A Thunderstorm Thunderstorm
11:22 AM 63.0 °F 62.1 °F 97% 29.94 in 10.0 mi SE 8.1 mph - N/A Thunderstorm Overcast
11:37 AM 63.0 °F 62.1 °F 97% 29.94 in 10.0 mi SSE 11.5 mph - N/A   Mostly Cloudy
11:53 AM 63.0 °F 63.0 °F 100% 29.90 in 10.0 mi SE 8.1 mph - 0.00 in Rain Light Rain
12:22 PM 64.9 °F 64.0 °F 97% 29.95 in 10.0 mi SSW 4.6 mph - 0.00 in   Mostly Cloudy
12:42 PM 64.9 °F 63.0 °F 93% 29.95 in 10.0 mi Calm Calm - 0.00 in   Scattered Clouds
12:53 PM 64.9 °F 64.0 °F 97% 29.92 in 10.0 mi Calm Calm - 0.00 in   Scattered Clouds
1:08 PM 66.0 °F 64.0 °F 93% 29.96 in 10.0 mi WSW 4.6 mph - N/A   Mostly Cloudy
1:29 PM 66.0 °F 64.0 °F 93% 29.95 in 10.0 mi NNW 4.6 mph - N/A   Overcast
1:53 PM 66.0 °F 64.0 °F 93% 29.91 in 10.0 mi NNW 4.6 mph - N/A   Overcast
2:53 PM 64.9 °F 64.0 °F 97% 29.92 in 10.0 mi NNW 3.5 mph - N/A   Overcast
3:25 PM 64.0 °F 64.0 °F 100% 29.97 in 2.5 mi NW 6.9 mph - 0.04 in Rain , Thunderstorm Light Thunderstorms and Rain
3:53 PM 61.0 °F 61.0 °F 100% 29.87 in 9.0 mi NNE 11.5 mph - 0.10 in Rain Light Rain
4:21 PM 61.0 °F 61.0 °F 100% 29.97 in 10.0 mi North 5.8 mph - 0.00 in   Overcast
4:53 PM 60.1 °F 60.1 °F 100% 29.90 in 10.0 mi North 15.0 mph - 0.00 in   Overcast
5:53 PM 59.0 °F 59.0 °F 100% 29.93 in 10.0 mi NE 12.7 mph - 0.01 in Rain Light Rain
6:00 PM 59.0 °F 59.0 °F 100% 29.98 in 10.0 mi North 12.7 mph - 0.00 in Rain Light Rain
6:40 PM 57.0 °F 57.0 °F 100% 30.00 in 10.0 mi North 13.8 mph - 0.01 in   Overcast
6:53 PM 57.0 °F 57.0 °F 100% 29.94 in 5.0 mi NE 16.1 mph - 0.01 in   Overcast
7:50 PM 55.4 °F 55.4 °F 100% 30.01 in 10.0 mi NNE 13.8 mph - 0.00 in   Overcast
7:53 PM 55.9 °F 55.9 °F 100% 30.00 in 10.0 mi NNE 10.4 mph - 0.00 in   Overcast
8:53 PM 55.9 °F 55.9 °F 100% 30.00 in 10.0 mi NNE 11.5 mph - N/A   Overcast
9:37 PM 55.0 °F 55.0 °F 100% 30.02 in 2.5 mi NE 10.4 mph - N/A   Overcast
9:49 PM 55.4 °F 55.4 °F 100% 30.02 in 4.0 mi NE 10.4 mph - N/A   Overcast
9:53 PM 55.0 °F 55.0 °F 100% 30.01 in 4.0 mi NE 9.2 mph - N/A   Overcast
10:53 PM 55.9 °F 55.9 °F 100% 30.01 in 10.0 mi NE 6.9 mph - N/A   Overcast
11:53 PM 55.0 °F 55.0 °F 100% 30.01 in 10.0 mi NNE 9.2 mph - N/A   Overcast